This is the latest recevied weather packets stored in our database for station/object N9OJR. If no packets are shown the sender has not sent any weather packets the latest 1 day(s).
| Time | Temp. | Humidity | Pressure | Rain* | Wind** | Luminosity | Snow |
|---|---|---|---|---|---|---|---|
| 1778030793 | 12.78° C | 99% | 1003.9 hPa | 3.05 mm | 0 m/s | 0 W/m² | - |
| 1778030490 | 13.33° C | 99% | 1004 hPa | 3.05 mm | 0 m/s | 0 W/m² | - |
| 1778030187 | 13.33° C | 99% | 1004 hPa | 1.27 mm | 0 m/s | 0 W/m² | - |
| 1778029883 | 13.33° C | 99% | 1003.9 hPa | 1.78 mm | 0 m/s | 0 W/m² | - |
| 1778029582 | 13.89° C | 99% | 1003.8 hPa | 3.05 mm | 0 m/s | 0 W/m² | - |
| 1778029279 | 13.89° C | 99% | 1003.7 hPa | 3.05 mm | 0 m/s | 0 W/m² | - |
| 1778028976 | 13.89° C | 99% | 1003.9 hPa | 3.05 mm | 0 m/s | 0 W/m² | - |
| 1778028672 | 13.89° C | 99% | 1003.8 hPa | 1.27 mm | 0 m/s | 0 W/m² | - |
| 1778028369 | 13.89° C | 99% | 1004 hPa | 1.78 mm | 0 m/s | 0 W/m² | - |
| 1778028066 | 13.89° C | 99% | 1003.9 hPa | 3.05 mm | 0 m/s | 0 W/m² | - |
| 1778027762 | 13.89° C | 99% | 1003.9 hPa | 3.05 mm | 0 m/s | 0 W/m² | - |
| 1778027458 | 13.89° C | 99% | 1004 hPa | 3.56 mm | 0 m/s | 0 W/m² | - |
| 1778027154 | 13.89° C | 99% | 1003.8 hPa | 3.05 mm | 0 m/s | 0 W/m² | - |
| 1778026850 | 13.89° C | 99% | 1004 hPa | 1.27 mm | 0 m/s | 0 W/m² | - |
| 1778026547 | 13.89° C | 99% | 1004 hPa | 1.78 mm | 0 m/s | 0 W/m² | - |
| 1778026244 | 13.89° C | 99% | 1003.9 hPa | 1.78 mm | 0 m/s | 2 W/m² | - |
| 1778025941 | 13.89° C | 99% | 1003.8 hPa | 0 mm | 0 m/s | 3 W/m² | - |
| 1778025639 | 13.89° C | 99% | 1004 hPa | 0 mm | 0 m/s | 2 W/m² | - |
| 1778025337 | 13.89° C | 99% | 1004.1 hPa | 0 mm | 0 m/s | 3 W/m² | - |
| 1778025033 | 13.89° C | 99% | 1003.9 hPa | 0 mm | 0 m/s | 7 W/m² | - |
| 1778024730 | 13.89° C | 99% | 1003.9 hPa | 0 mm | 0 m/s | 8 W/m² | - |
| 1778024427 | 13.89° C | 99% | 1004 hPa | 1.27 mm | 0 m/s | 6 W/m² | - |
| 1778024125 | 13.89° C | 99% | 1004.1 hPa | 3.05 mm | 0 m/s | 8 W/m² | - |
| 1778023822 | 13.89° C | 99% | 1004 hPa | 1.78 mm | 0 m/s | 9 W/m² | - |
| 1778023520 | 13.89° C | 99% | 1004.1 hPa | 1.27 mm | 0 m/s | 7 W/m² | - |
* Rain latest hour (hover to see other rain measurements)
** Current wind speed in m/s (hover to see current wind gust speed)